Preview of NWS' New Version of Forecast
This preview is not operational and should not be used for support decisions.

Regional Weather Roundup (RWR)

Issued by National Weather Service (NWS)

                            
000
ASUS43 KDMX 160901
RWRIA 

WEATHER ROUNDUP FOR IOWA
NATIONAL WEATHER SERVICE DES MOINES IA
400 AM CDT MON SEP 16 2019

NOTE: "FAIR" INDICATES FEW OR NO CLOUDS BELOW 12,000 FEET WITH NO
SIGNIFICANT WEATHER AND/OR OBSTRUCTIONS TO VISIBILITY.

* - THESE STATIONS ARE NOT NWS STATIONS...THUS NOT UNDER NWS
QUALITY CONTROL.  THEY ALSO DO NOT REPORT WEATHER SUCH 
AS PRECIPITATION OR FOG.  

IAZ001>003-012>014-020>022-031>034-043>046-161000-
   NORTHWEST IOWA
  
CITY           SKY/WX    TMP DP  RH WIND       PRES   REMARKS
CARROLL *      PTCLDY    68  66  94 SE6       30.03S                  
CHEROKEE *     CLEAR     68  67  99 CALM      30.01F                  
DENISON *      CLEAR     70  70 100 E5        30.03S                  
LE MARS *      CLEAR     68  68 100 SE7       29.99S                  
SHELDON *        N/A     68  68 100 SE7       29.99F                  
SIOUX CITY     CLEAR     65  64  97 SE8       29.98F                  
SPENCER        CLEAR     66  62  87 SE9       30.03F                  
STORM LAKE *   CLEAR     68  68 100 SE8       30.00F                  
$$
 
IAZ055>058-069>071-079>083-090>094-161000-
   SOUTHWEST IOWA
  
CITY           SKY/WX    TMP DP  RH WIND       PRES   REMARKS
ATLANTIC *     CLEAR     66  66 100 CALM      30.02S                  
AUDUBON *        N/A     63  61  94 CALM      30.05S                  
CLARINDA *     FOG       66  66 100 CALM      30.05R VSB 3/4          
COUNCIL BLFS * CLEAR     70  70 100 SE8       30.00R                  
CRESTON *      CLEAR     68  68 100 SE6       30.05S                  
LAMONI         CLEAR     73  69  87 S6        30.05S                  
RED OAK *      CLEAR     66  66 100 CALM      30.02S                  
SHENANDOAH *   CLEAR     70  70 100 CALM      30.01S                  
$$
 
IAZ047>049-059>061-072>074-084-161000-
   CENTRAL IOWA
  
CITY           SKY/WX    TMP DP  RH WIND       PRES   REMARKS
AMES           FOG       64  64 100 CALM      30.05S VSB 1/4          
ANKENY *       FOG       66  66 100 CALM      30.05S VSB 1/4          
BOONE *        FOG       66  66 100 SE6       30.05R VSB 3/4          
CHARITON *     CLEAR     68  68 100 SE5       30.05R FOG              
DES MOINES     CLEAR     72  69  90 SE7       30.03S                  
GRINNELL*      FOG       67  67  98 E5        30.08R VSB 1/4          
KNOXVILLE *      N/A     70  70 100 CALM      30.05R                  
MARSHALLTOWN   FOG       64  64 100 E6        30.05S VSB 1/4          
NEWTON *       FOG       66  66 100 E6        30.05S VSB<1/4          
PELLA *        CLEAR     70  68  94 CALM      30.06S FOG              
PERRY *        FOG       66  65  99 E5        30.04S VSB 1/4          
$$
 
IAZ004>006-015-016-023>025-035-036-161000-
   NORTH CENTRAL IOWA
  
CITY           SKY/WX    TMP DP  RH WIND       PRES   REMARKS
ALGONA *       CLEAR     64  64 100 SE7       30.04R                  
CLARION *      CLEAR     66  66 100 SE8       30.06R FOG              
ESTHERVILLE    CLEAR     62  62 100 S8        30.03S                  
FORT DODGE *   CLEAR     69  67  93 SE6       30.05S                  
MASON CITY     FOG       55  54  96 SE3       30.08S VSB 1/4          
FOREST CITY *  FAIR      59  59 100 CALM      30.06S                  
IOWA FALLS *   FOG       63  59  88 CALM      30.08R VSB<1/4          
$$

IAZ007>011-017>019-026>030-037>042-050>054-066-161000-
   NORTHEAST IOWA
  
CITY           SKY/WX    TMP DP  RH WIND       PRES   REMARKS
CEDAR RAPIDS   FOG       67  67 100 E5        30.06R VSB<1/4          
CHARLES CITY * FOG       64  63  94 CALM      30.08R VSB<1/4          
CLINTON *      FOG       62  62 100 CALM      30.08R VSB 1/4          
DECORAH *      FOG       63  63 100 CALM      30.07S VSB<1/4          
DUBUQUE        FOG       63  63 100 CALM      30.09R VSB<1/4          
MONTICELLO *   FOG       63  63 100 CALM      30.08R VSB<1/4          
OELWEIN *      FOG       61  61 100 E5        30.08S VSB 1/4          
WATERLOO       FOG       65  63  93 E3        30.06R VSB 1/4          
$$
 
IAZ064-065-067-068-078-161000-
   EAST CENTRAL IOWA
  
CITY           SKY/WX    TMP DP  RH WIND       PRES   REMARKS
DAVENPORT      FAIR      69  67  93 NE6       30.09R FOG              
IOWA CITY      FAIR      71  69  93 NE3       30.07R FOG              
MUSCATINE *    FOG       68  68 100 N3        30.06R VSB 1/4          
QUAD CITIES    FOG       68  66  93 CALM      30.06R VSB 3/4          
$$
 
IAZ062-063-075>077-085>089-095>099-161000-
   SOUTHEAST IOWA
  
CITY           SKY/WX    TMP DP  RH WIND       PRES   REMARKS
BURLINGTON     FOG       68  67  96 CALM      30.05R VSB 1            
FAIRFIELD *    CLEAR     68  68 100 NE6       30.05S FOG              
FORT MADISON * CLEAR     72  72 100 CALM      30.06R FOG              
KEOKUK *       CLEAR     70  70 100 SW3       30.05S                  
OSKALOOSA *    FAIR      68  67  94 E5        30.06R FOG              
OTTUMWA        CLEAR     70  69  97 E6        30.05R FOG              
WASHINGTON *     N/A    N/A N/A N/A MISG        N/A                   
$$

ABBREVIATIONS USED IN REMARKS
   TC - TEMPERATURES IN CELSIUS
  WCI - WIND CHILL INDEX
   HX - HEAT INDEX
  VSB - VISIBILITY  
$$